Weather History for Chennai, India

Change the Weather History Date:

Wednesday, May 8, 2013

  Actual Average Record
Temperature  
Mean Temperature 90 °F -  
Max Temperature 99 °F 96 °F 104 °F (1999)
Min Temperature 82 °F 80 °F 76 °F (2014)
Cooling Degree Days 26    
Growing Degree Days 40 (Base 50)    
Moisture  
Dew Point 77 °F    
Average Humidity 65    
Maximum Humidity 87    
Minimum Humidity 40    
Precipitation  
Precipitation 0.00 in 0.06 in - ()
Sea Level Pressure  
Sea Level Pressure 29.69 in    
Wind  
Wind Speed 7 mph ()    
Max Wind Speed 16 mph    
Max Gust Speed 21 mph    
Visibility 4.1 miles    
Events      
Averages and records for this station are not official NWS values.
T = Trace of Precipitation, MM = Missing Value Source: Averaged Metar Reports

Daily Weather History Graph

Daily Weather History Graph

Search for Another Location

Airport:

Trip Planner

Search our weather history database for the weather conditions in past years. The results will help you decide how hot, cold, wet, or windy it might be!

Date:

Astronomy

May. 08, 2013 Rise Set
Actual Time 5:45 AM IST 6:25 PM IST
Civil Twilight 5:23 AM IST 6:48 PM IST
Nautical Twilight 4:57 AM IST 7:14 PM IST
Astronomical Twilight 4:30 AM IST 7:40 PM IST
Moon 4:21 AM IST (5/8) 5:07 PM IST (5/8)
Length of Visible Light 13h 24m
Length of Day
12h 39m
Waning Crescent, 3% of the Moon is Illuminated
May 8
Waning Crescent
May 10
New
May 18
First Quarter
May 25
Full
Jun 1
Last Quarter

Hourly Weather History & Observations

Time (IST) Temp. Heat Index Dew Point Humidity Pressure Visibility Wind Dir Wind Speed Gust Speed Precip Events Conditions
12:10 AM 86.0 °F 99.3 °F 78.8 °F 79% 29.74 in 3.7 mi South 8.1 mph - N/A   Scattered Clouds
12:40 AM 86.0 °F 99.3 °F 78.8 °F 79% 29.71 in 3.7 mi South 6.9 mph - N/A   Scattered Clouds
1:10 AM 86.0 °F 99.3 °F 78.8 °F 79% 29.71 in 3.7 mi South 6.9 mph - N/A   Scattered Clouds
1:40 AM 86.0 °F 99.3 °F 78.8 °F 79% 29.71 in 3.7 mi SSW 6.9 mph - N/A   Scattered Clouds
2:10 AM 84.2 °F 94.1 °F 77.0 °F 79% 29.68 in 3.7 mi SSW 5.8 mph - N/A   Scattered Clouds
2:30 AM 86 °F - 80 °F 78% 29.71 in 2 mi SW 2.3 mph - -   Scattered Clouds
2:40 AM 84.2 °F 94.1 °F 77.0 °F 79% 29.68 in 3.7 mi SSW 5.8 mph - N/A   Partly Cloudy
3:10 AM 84.2 °F 94.1 °F 77.0 °F 79% 29.68 in 3.7 mi SSW 6.9 mph - N/A   Scattered Clouds
3:40 AM 84.2 °F 94.1 °F 77.0 °F 79% 29.68 in 3.7 mi SSW 5.8 mph - N/A   Scattered Clouds
4:10 AM 84.2 °F 94.1 °F 77.0 °F 79% 29.68 in 3.7 mi South 4.6 mph - N/A   Scattered Clouds
4:40 AM 84.2 °F 94.1 °F 77.0 °F 79% 29.68 in 3.7 mi SSW 4.6 mph - N/A   Partly Cloudy
5:10 AM 84.2 °F 94.1 °F 77.0 °F 79% 29.68 in 3.7 mi South 6.9 mph - N/A   Partly Cloudy
5:30 AM 84 °F - 81 °F 87% 29.71 in 2 mi Calm Calm - -   Scattered Clouds
5:40 AM 84.2 °F 94.1 °F 77.0 °F 79% 29.68 in 3.7 mi SSW 5.8 mph - N/A   Scattered Clouds
6:10 AM 84.2 °F 94.1 °F 77.0 °F 79% 29.71 in 3.7 mi SSW 4.6 mph - N/A   Scattered Clouds
6:40 AM 84.2 °F 94.1 °F 77.0 °F 79% 29.71 in 3.7 mi SSW 6.9 mph - N/A   Partly Cloudy
7:10 AM 86.0 °F 96.9 °F 77.0 °F 74% 29.71 in 3.7 mi South 9.2 mph - N/A   Partly Cloudy
7:40 AM 87.8 °F 99.7 °F 77.0 °F 70% 29.74 in 3.7 mi South 8.1 mph - N/A   Partly Cloudy
8:10 AM 89.6 °F 102.2 °F 77.0 °F 66% 29.74 in 3.7 mi SW 8.1 mph - N/A   Partly Cloudy
8:30 AM 91 °F - 79 °F 61% 29.77 in 6 mi Calm Calm - -   Scattered Clouds
8:40 AM 91.4 °F 105.1 °F 77.0 °F 63% 29.74 in 3.7 mi WSW 6.9 mph - N/A   Partly Cloudy
9:10 AM 93.2 °F 105.0 °F 75.2 °F 56% 29.74 in 3.7 mi SSW 6.9 mph - N/A   Partly Cloudy
9:40 AM 95.0 °F 104.5 °F 73.4 °F 49% 29.74 in 4.3 mi SW 8.1 mph - N/A   Partly Cloudy
10:10 AM 96.8 °F 107.3 °F 73.4 °F 47% 29.74 in 4.3 mi South 11.5 mph - N/A   Partly Cloudy
10:40 AM 96.8 °F 107.3 °F 73.4 °F 47% 29.71 in 5.0 mi SSE 8.1 mph - N/A   Partly Cloudy
11:10 AM 96.8 °F 105.1 °F 71.6 °F 44% 29.71 in 5.0 mi ESE 4.6 mph - N/A   Partly Cloudy
11:30 AM 96 °F - 77 °F 46% 29.74 in 6 mi East 5.8 mph - -   Partly Cloudy
11:40 AM 96.8 °F 107.3 °F 73.4 °F 47% 29.71 in 5.0 mi South 4.6 mph - N/A   Partly Cloudy
12:10 PM 96.8 °F 107.3 °F 73.4 °F 47% 29.68 in 5.0 mi South 6.9 mph - N/A   Partly Cloudy
12:40 PM 98.6 °F 111.7 °F 75.2 °F 47% 29.68 in 5.0 mi SE 8.1 mph - N/A   Partly Cloudy
1:10 PM 98.6 °F 114.4 °F 77.0 °F 50% 29.65 in 5.0 mi SE 13.8 mph - N/A   Partly Cloudy
1:40 PM 96.8 °F 109.6 °F 75.2 °F 50% 29.65 in 5.0 mi SE 16.1 mph - N/A   Partly Cloudy
2:10 PM 98.6 °F 111.7 °F 75.2 °F 47% 29.62 in 5.0 mi SE 9.2 mph 20.7 mph N/A   Partly Cloudy
2:30 PM 98 °F - 76 °F 40% 29.67 in 6 mi East 6.9 mph - -   Scattered Clouds
2:40 PM 98.6 °F 111.7 °F 75.2 °F 47% 29.62 in 5.0 mi ESE 9.2 mph 20.7 mph N/A   Partly Cloudy
3:10 PM 98.6 °F 109.2 °F 73.4 °F 44% 29.62 in 5.0 mi SE 9.2 mph 20.7 mph N/A   Partly Cloudy
3:40 PM 98.6 °F 109.2 °F 73.4 °F 44% 29.59 in 5.0 mi SSE 13.8 mph - N/A   Partly Cloudy
4:10 PM 96.8 °F 107.3 °F 73.4 °F 47% 29.59 in 5.0 mi SE 13.8 mph - N/A   Partly Cloudy
4:40 PM 95.0 °F 104.5 °F 73.4 °F 49% 29.59 in 5.0 mi SE 13.8 mph - N/A   Unknown
5:10 PM 93.2 °F 102.4 °F 73.4 °F 52% 29.59 in 5.0 mi SE 12.7 mph - N/A   Unknown
5:30 PM 92 °F - 76 °F 50% 29.64 in 6 mi SE 11.5 mph - -   Scattered Clouds
5:40 PM 93.2 °F 102.4 °F 73.4 °F 52% 29.59 in 4.3 mi SE 11.5 mph - N/A   Unknown
6:10 PM 91.4 °F 102.5 °F 75.2 °F 59% 29.62 in 3.7 mi SE 11.5 mph - N/A   Unknown
6:40 PM 89.6 °F 99.8 °F 75.2 °F 62% 29.62 in 3.7 mi SE 11.5 mph - N/A   Unknown
7:10 PM 89.6 °F 102.2 °F 77.0 °F 66% 29.65 in 3.7 mi SE 9.2 mph - N/A   Partly Cloudy
7:40 PM 87.8 °F 99.7 °F 77.0 °F 70% 29.65 in 3.7 mi SSE 9.2 mph - N/A   Partly Cloudy
8:10 PM 87.8 °F 99.7 °F 77.0 °F 70% 29.68 in 3.7 mi SSE 12.7 mph - N/A   Partly Cloudy
8:30 PM 89 °F - 80 °F 69% 29.72 in 2 mi SSE 6.9 mph - -   Scattered Clouds
8:40 PM 87.8 °F 102.5 °F 78.8 °F 75% 29.68 in 3.7 mi SSE 11.5 mph - N/A   Partly Cloudy
9:10 PM 87.8 °F 102.5 °F 78.8 °F 75% 29.71 in 3.7 mi South 11.5 mph - N/A   Partly Cloudy
9:40 PM 87.8 °F 102.5 °F 78.8 °F 75% 29.71 in 3.7 mi SSE 10.4 mph - N/A   Scattered Clouds
10:10 PM 86.0 °F 99.3 °F 78.8 °F 79% 29.71 in 3.7 mi South 11.5 mph - N/A   Scattered Clouds
10:40 PM 86.0 °F 101.9 °F 80.6 °F 84% 29.74 in 3.7 mi SSE 12.7 mph - N/A   Scattered Clouds
11:10 PM 86.0 °F 101.9 °F 80.6 °F 84% 29.71 in 3.7 mi South 10.4 mph - N/A   Scattered Clouds
11:30 PM 87 °F - 82 °F 79% 29.75 in 2 mi SSW 9.2 mph - -   Mostly Cloudy
11:40 PM 86.0 °F 101.9 °F 80.6 °F 84% 29.71 in 3.7 mi South 12.7 mph - N/A   Scattered Clouds